QPF
0.01 0.01 0.01 0.01 0.00 0.00 0.00 0.00 0.00 0.00 0.00 0.00 0.00 0.00 0.00 0.00 0.00 0.00 0.00 0.00 0.00 0.00 0.00 0.00 0.00 0.01 0.01 0.01 0.01 0.01 0.01 0.01 0.01 0.01 0.02 0.04 0.06 0.07
0.01 0.01 0.01 0.00 0.00 0.00 0.00 0.00 0.00 0.00 0.00 0.00 0.00 0.00 0.00 0.00 0.00 0.00 0.00 0.00 0.00 0.00 0.00 0.00 0.00 0.00 0.01 0.01 0.01 0.01 0.01 0.01 0.01 0.01 0.02 0.03 0.05 0.06
0.00 0.00 0.00 0.00 0.00 0.00 0.00 0.00 0.00 0.00 0.00 0.00 0.00 0.00 0.01 0.01 0.01 0.01 0.01 0.01 0.00 0.00 0.00 0.00 0.00 0.00 0.01 0.01 0.01 0.02 0.02 0.02 0.02 0.02 0.03 0.04 0.04 0.05
0.00 0.00 0.00 0.00 0.00 0.00 0.00 0.00 0.00 0.01 0.01 0.01 0.00 0.00 0.01 0.01 0.01 0.02 0.01 0.01 0.01 0.00 0.00 0.00 0.00 0.00 0.01 0.01 0.01 0.02 0.01 0.01 0.01 0.02 0.03 0.04 0.05 0.06
0.00 0.00 0.00 0.00 0.00 0.00 0.01 0.01 0.01 0.01 0.02 0.02 0.01 0.01 0.01 0.01 0.02 0.02 0.02 0.02 0.01 0.01 0.00 0.00 0.00 0.00 0.01 0.01 0.01 0.01 0.00 0.00 0.00 0.00 0.01 0.02 0.03 0.05
0.00 0.00 0.00 0.00 0.01 0.01 0.02 0.02 0.03 0.03 0.03 0.03 0.03 0.02 0.02 0.02 0.03 0.04 0.03 0.03 0.03 0.01 0.01 0.01 0.01 0.01 0.01 0.01 0.01 0.01 0.00 0.00 0.00 0.00 0.00 0.01 0.01 0.02
0.00 0.00 0.00 0.00 0.01 0.01 0.02 0.03 0.05 0.06 0.05 0.05 0.05 0.04 0.03 0.04 0.05 0.05 0.05 0.04 0.03 0.03 0.03 0.03 0.04 0.04 0.03 0.02 0.01 0.01 0.01 0.01 0.01 0.01 0.01 0.01 0.01 0.01
0.00 0.00 0.00 0.00 0.00 0.00 0.01 0.01 0.03 0.05 0.06 0.06 0.06 0.06 0.05 0.06 0.07 0.06 0.05 0.05 0.04 0.03 0.05 0.03 0.03 0.04 0.03 0.04 0.03 0.01 0.01 0.01 0.01 0.01 0.01 0.00 0.01 0.01
0.01 0.01 0.01 0.01 0.01 0.02 0.02 0.01 0.02 0.02 0.03 0.07 0.08 0.07 0.07 0.07 0.08 0.07 0.06 0.06 0.05 0.05 0.07 0.05 0.04 0.04 0.04 0.02 0.01 0.00 0.00 0.01 0.01 0.01 0.01 0.00 0.00 0.00
0.01 0.01 0.02 0.03 0.03 0.02 0.01 0.02 0.03 0.04 0.04 0.05 0.07 0.06 0.06 0.06 0.06 0.06 0.06 0.05 0.04 0.05 0.08 0.06 0.04 0.05 0.04 0.05 0.03 0.01 0.00 0.00 0.01 0.01 0.02 0.02 0.01 0.00
0.01 0.01 0.01 0.03 0.01 0.00 0.01 0.03 0.03 0.04 0.02 0.02 0.03 0.03 0.03 0.03 0.03 0.05 0.07 0.06 0.04 0.03 0.06 0.06 0.04 0.04 0.04 0.06 0.06 0.01 0.01 0.01 0.01 0.01 0.01 0.01 0.01 0.01
0.01 0.02 0.01 0.01 0.00 0.00 0.01 0.04 0.05 0.04 0.03 0.04 0.04 0.04 0.05 0.05 0.04 0.06 0.07 0.06 0.05 0.03 0.04 0.04 0.03 0.04 0.03 0.04 0.05 0.06 0.05 0.03 0.02 0.02 0.02 0.02 0.02 0.04
0.01 0.02 0.02 0.00 0.00 0.00 0.01 0.04 0.04 0.02 0.04 0.06 0.05 0.05 0.05 0.05 0.05 0.05 0.05 0.06 0.06 0.06 0.04 0.05 0.05 0.04 0.04 0.03 0.03 0.05 0.06 0.06 0.05 0.04 0.03 0.02 0.02 0.05
0.03 0.02 0.02 0.00 0.00 0.00 0.01 0.02 0.01 0.03 0.06 0.06 0.05 0.04 0.04 0.04 0.04 0.04 0.04 0.05 0.05 0.05 0.05 0.06 0.06 0.05 0.05 0.04 0.03 0.04 0.04 0.04 0.05 0.06 0.07 0.04 0.03 0.04
0.02 0.01 0.01 0.00 0.01 0.03 0.02 0.01 0.03 0.06 0.06 0.05 0.05 0.05 0.04 0.04 0.04 0.04 0.04 0.05 0.05 0.04 0.03 0.04 0.05 0.05 0.06 0.05 0.04 0.04 0.04 0.04 0.05 0.06 0.08 0.07 0.05 0.05
0.01 0.01 0.01 0.01 0.02 0.03 0.03 0.04 0.05 0.06 0.05 0.06 0.05 0.04 0.04 0.03 0.04 0.03 0.04 0.04 0.03 0.03 0.02 0.03 0.04 0.05 0.05 0.05 0.05 0.05 0.06 0.06 0.06 0.06 0.08 0.08 0.08 0.07
0.01 0.02 0.03 0.03 0.02 0.03 0.03 0.04 0.05 0.06 0.05 0.05 0.05 0.04 0.03 0.03 0.03 0.03 0.04 0.03 0.03 0.02 0.03 0.03 0.04 0.05 0.06 0.05 0.07 0.07 0.07 0.07 0.08 0.07 0.08 0.09 0.09 0.08
0.01 0.02 0.02 0.02 0.02 0.02 0.02 0.03 0.04 0.05 0.05 0.04 0.04 0.04 0.03 0.03 0.03 0.03 0.03 0.03 0.03 0.03 0.03 0.03 0.03 0.03 0.04 0.05 0.09 0.10 0.08 0.09 0.09 0.09 0.08 0.09 0.09 0.09
0.01 0.02 0.02 0.02 0.02 0.02 0.02 0.02 0.03 0.04 0.05 0.04 0.04 0.03 0.03 0.03 0.03 0.02 0.02 0.02 0.02 0.03 0.03 0.02 0.02 0.02 0.03 0.07 0.10 0.14 0.11 0.09 0.09 0.09 0.09 0.09 0.09 0.11
0.01 0.02 0.02 0.03 0.03 0.02 0.02 0.02 0.02 0.02 0.03 0.04 0.04 0.03 0.03 0.03 0.03 0.02 0.02 0.02 0.02 0.02 0.02 0.02 0.02 0.03 0.05 0.08 0.13 0.16 0.13 0.08 0.07 0.08 0.09 0.09 0.11 0.13
0.02 0.02 0.02 0.03 0.02 0.02 0.02 0.02 0.02 0.02 0.02 0.02 0.03 0.03 0.03 0.03 0.03 0.02 0.02 0.02 0.02 0.02 0.03 0.04 0.05 0.05 0.03 0.03 0.08 0.14 0.15 0.14 0.11 0.09 0.09 0.09 0.10 0.10
0.01 0.01 0.02 0.02 0.02 0.02 0.01 0.01 0.01 0.01 0.01 0.01 0.02 0.03 0.03 0.02 0.02 0.02 0.02 0.01 0.02 0.02 0.03 0.04 0.03 0.01 0.01 0.02 0.07 0.11 0.12 0.11 0.11 0.12 0.11 0.08 0.05 0.06
0.01 0.01 0.01 0.01 0.01 0.01 0.01 0.01 0.01 0.01 0.01 0.01 0.02 0.02 0.02 0.01 0.01 0.01 0.01 0.01 0.01 0.01 0.01 0.01 0.01 0.01 0.01 0.02 0.03 0.05 0.05 0.05 0.04 0.05 0.10 0.10 0.07 0.07
MSLP
1021.73 1021.57 1021.33 1021.01 1020.61 1020.14 1019.63 1019.10 1018.60 1018.16 1017.80 1017.53 1017.37 1017.29 1017.27 1017.28 1017.30 1017.31 1017.29 1017.24 1017.16 1017.07 1016.95 1016.84 1016.72 1016.61 1016.50 1016.39 1016.27 1016.14 1015.99 1015.83 1015.66 1015.48 1015.30 1015.14 1015.00 1014.89
1021.59 1021.45 1021.25 1020.98 1020.63 1020.20 1019.72 1019.21 1018.71 1018.25 1017.86 1017.56 1017.33 1017.18 1017.08 1017.00 1016.92 1016.83 1016.72 1016.57 1016.40 1016.23 1016.05 1015.90 1015.77 1015.66 1015.59 1015.53 1015.48 1015.43 1015.35 1015.26 1015.14 1014.99 1014.83 1014.66 1014.51 1014.37
1021.42 1021.30 1021.14 1020.91 1020.62 1020.25 1019.81 1019.34 1018.87 1018.42 1018.03 1017.68 1017.41 1017.18 1016.99 1016.82 1016.63 1016.43 1016.20 1015.93 1015.66 1015.38 1015.12 1014.90 1014.73 1014.62 1014.55 1014.53 1014.53 1014.54 1014.54 1014.52 1014.46 1014.37 1014.24 1014.09 1013.95 1013.81
1021.30 1021.18 1021.05 1020.86 1020.61 1020.30 1019.92 1019.51 1019.07 1018.64 1018.24 1017.87 1017.55 1017.26 1016.98 1016.70 1016.41 1016.08 1015.73 1015.34 1014.94 1014.55 1014.19 1013.89 1013.65 1013.49 1013.41 1013.39 1013.42 1013.47 1013.53 1013.58 1013.58 1013.55 1013.48 1013.38 1013.27 1013.16
1021.27 1021.14 1021.00 1020.84 1020.62 1020.35 1020.02 1019.65 1019.25 1018.85 1018.44 1018.06 1017.69 1017.33 1016.97 1016.60 1016.20 1015.76 1015.29 1014.79 1014.28 1013.77 1013.30 1012.90 1012.57 1012.34 1012.20 1012.15 1012.18 1012.25 1012.34 1012.44 1012.51 1012.55 1012.55 1012.51 1012.46 1012.40
1021.34 1021.18 1021.02 1020.85 1020.64 1020.39 1020.09 1019.74 1019.37 1018.97 1018.56 1018.15 1017.74 1017.33 1016.90 1016.45 1015.96 1015.43 1014.87 1014.27 1013.66 1013.06 1012.49 1011.98 1011.56 1011.24 1011.03 1010.92 1010.90 1010.96 1011.06 1011.19 1011.31 1011.42 1011.49 1011.53 1011.56 1011.57
1021.49 1021.27 1021.07 1020.86 1020.62 1020.36 1020.07 1019.73 1019.35 1018.95 1018.53 1018.09 1017.64 1017.17 1016.69 1016.18 1015.64 1015.05 1014.43 1013.78 1013.11 1012.44 1011.79 1011.20 1010.69 1010.27 1009.97 1009.78 1009.70 1009.72 1009.80 1009.94 1010.10 1010.26 1010.40 1010.52 1010.62 1010.72
1021.66 1021.37 1021.09 1020.82 1020.54 1020.25 1019.92 1019.56 1019.17 1018.75 1018.30 1017.83 1017.34 1016.83 1016.31 1015.77 1015.21 1014.61 1013.98 1013.31 1012.62 1011.93 1011.25 1010.60 1010.02 1009.52 1009.13 1008.85 1008.69 1008.65 1008.70 1008.82 1008.99 1009.18 1009.38 1009.57 1009.74 1009.91
1021.78 1021.41 1021.05 1020.70 1020.36 1020.01 1019.64 1019.25 1018.82 1018.36 1017.88 1017.37 1016.85 1016.32 1015.78 1015.24 1014.69 1014.11 1013.51 1012.88 1012.23 1011.55 1010.87 1010.21 1009.58 1009.02 1008.55 1008.19 1007.95 1007.83 1007.83 1007.91 1008.07 1008.28 1008.51 1008.74 1008.97 1009.18
1021.81 1021.35 1020.92 1020.50 1020.09 1019.68 1019.25 1018.81 1018.34 1017.84 1017.31 1016.78 1016.23 1015.69 1015.16 1014.63 1014.11 1013.60 1013.06 1012.51 1011.92 1011.30 1010.66 1010.01 1009.38 1008.78 1008.25 1007.82 1007.50 1007.30 1007.22 1007.26 1007.39 1007.59 1007.82 1008.08 1008.33 1008.58
1021.72 1021.20 1020.70 1020.22 1019.75 1019.28 1018.81 1018.32 1017.81 1017.27 1016.71 1016.14 1015.58 1015.03 1014.52 1014.03 1013.56 1013.11 1012.67 1012.20 1011.70 1011.17 1010.58 1009.97 1009.34 1008.72 1008.15 1007.66 1007.26 1006.99 1006.85 1006.83 1006.91 1007.08 1007.30 1007.56 1007.82 1008.07
1021.56 1021.00 1020.45 1019.92 1019.41 1018.91 1018.39 1017.86 1017.32 1016.74 1016.16 1015.57 1015.00 1014.45 1013.95 1013.50 1013.09 1012.71 1012.35 1011.97 1011.56 1011.10 1010.58 1010.00 1009.39 1008.77 1008.16 1007.61 1007.16 1006.82 1006.61 1006.52 1006.56 1006.69 1006.89 1007.13 1007.39 1007.64
1021.37 1020.78 1020.21 1019.66 1019.13 1018.60 1018.06 1017.51 1016.93 1016.34 1015.74 1015.13 1014.56 1014.02 1013.54 1013.11 1012.75 1012.42 1012.12 1011.81 1011.46 1011.06 1010.59 1010.04 1009.44 1008.81 1008.18 1007.59 1007.08 1006.68 1006.41 1006.27 1006.27 1006.36 1006.54 1006.77 1007.01 1007.25
1021.21 1020.62 1020.04 1019.48 1018.94 1018.39 1017.84 1017.28 1016.69 1016.09 1015.48 1014.87 1014.29 1013.76 1013.29 1012.89 1012.55 1012.25 1011.98 1011.71 1011.39 1011.02 1010.57 1010.04 1009.45 1008.80 1008.15 1007.53 1006.98 1006.54 1006.22 1006.04 1006.00 1006.07 1006.23 1006.45 1006.69 1006.93
1021.11 1020.52 1019.95 1019.39 1018.83 1018.29 1017.73 1017.17 1016.58 1015.97 1015.36 1014.76 1014.19 1013.67 1013.21 1012.82 1012.48 1012.19 1011.93 1011.66 1011.35 1010.98 1010.53 1010.00 1009.40 1008.75 1008.08 1007.44 1006.87 1006.40 1006.06 1005.85 1005.79 1005.85 1006.00 1006.22 1006.46 1006.71
1021.08 1020.50 1019.92 1019.35 1018.79 1018.24 1017.68 1017.11 1016.53 1015.94 1015.34 1014.76 1014.21 1013.70 1013.25 1012.86 1012.52 1012.23 1011.95 1011.67 1011.35 1010.97 1010.51 1009.97 1009.36 1008.71 1008.04 1007.40 1006.82 1006.35 1006.00 1005.79 1005.73 1005.78 1005.94 1006.16 1006.42 1006.67
1021.11 1020.51 1019.92 1019.33 1018.76 1018.20 1017.63 1017.07 1016.49 1015.92 1015.35 1014.79 1014.27 1013.78 1013.35 1012.98 1012.64 1012.34 1012.05 1011.75 1011.42 1011.02 1010.56 1010.02 1009.42 1008.78 1008.14 1007.52 1006.96 1006.51 1006.18 1005.98 1005.92 1005.98 1006.14 1006.37 1006.63 1006.90
1021.15 1020.52 1019.90 1019.29 1018.69 1018.11 1017.54 1016.97 1016.41 1015.86 1015.32 1014.81 1014.33 1013.88 1013.48 1013.13 1012.81 1012.52 1012.23 1011.93 1011.59 1011.20 1010.75 1010.23 1009.67 1009.07 1008.47 1007.91 1007.40 1006.99 1006.69 1006.52 1006.47 1006.54 1006.70 1006.92 1007.18 1007.43
1021.17 1020.52 1019.86 1019.21 1018.58 1017.97 1017.38 1016.82 1016.27 1015.75 1015.25 1014.79 1014.36 1013.97 1013.61 1013.30 1013.01 1012.74 1012.47 1012.19 1011.87 1011.51 1011.10 1010.64 1010.14 1009.62 1009.09 1008.60 1008.16 1007.81 1007.56 1007.42 1007.38 1007.45 1007.59 1007.79 1008.02 1008.25
1021.17 1020.49 1019.80 1019.12 1018.45 1017.82 1017.22 1016.65 1016.12 1015.63 1015.17 1014.75 1014.38 1014.04 1013.74 1013.47 1013.23 1013.00 1012.77 1012.52 1012.26 1011.95 1011.60 1011.22 1010.81 1010.38 1009.95 1009.55 1009.20 1008.91 1008.71 1008.59 1008.57 1008.62 1008.74 1008.90 1009.08 1009.26
1021.18 1020.48 1019.76 1019.05 1018.36 1017.71 1017.10 1016.53 1016.01 1015.54 1015.12 1014.75 1014.42 1014.13 1013.88 1013.66 1013.46 1013.27 1013.08 1012.89 1012.67 1012.44 1012.17 1011.88 1011.57 1011.24 1010.92 1010.62 1010.36 1010.14 1009.98 1009.89 1009.87 1009.90 1009.98 1010.09 1010.21 1010.33
1021.23 1020.52 1019.79 1019.07 1018.37 1017.71 1017.10 1016.54 1016.03 1015.57 1015.18 1014.83 1014.53 1014.27 1014.05 1013.85 1013.68 1013.52 1013.37 1013.22 1013.06 1012.89 1012.70 1012.50 1012.28 1012.06 1011.84 1011.63 1011.45 1011.29 1011.18 1011.11 1011.08 1011.09 1011.13 1011.18 1011.25 1011.30
1021.34 1020.65 1019.94 1019.23 1018.54 1017.88 1017.27 1016.71 1016.21 1015.76 1015.36 1015.02 1014.72 1014.46 1014.24 1014.05 1013.88 1013.73 1013.60 1013.47 1013.34 1013.22 1013.09 1012.95 1012.82 1012.68 1012.54 1012.41 1012.29 1012.19 1012.11 1012.06 1012.02 1012.01 1012.02 1012.03 1012.04 1012.05
Thickness
5558 5554 5550 5549 5545 5541 5537 5534 5532 5534 5536 5530 5523 5517 5510 5504 5499 5495 5493 5491 5487 5484 5480 5478 5475 5474 5474 5473 5473 5474 5475 5476 5478 5481 5485 5489 5494 5500
5540 5535 5532 5531 5528 5524 5521 5518 5515 5514 5516 5511 5504 5500 5493 5487 5483 5480 5478 5476 5473 5471 5468 5465 5463 5461 5460 5460 5460 5460 5460 5461 5463 5465 5468 5472 5477 5482
5524 5522 5518 5513 5510 5508 5506 5503 5500 5497 5497 5495 5487 5483 5476 5471 5468 5465 5464 5463 5463 5462 5459 5456 5453 5451 5449 5449 5450 5450 5450 5451 5452 5454 5455 5458 5462 5467
5509 5505 5502 5499 5494 5492 5489 5486 5483 5478 5475 5474 5470 5466 5461 5457 5454 5452 5452 5452 5451 5451 5449 5446 5445 5444 5444 5443 5443 5443 5443 5442 5443 5443 5445 5447 5449 5453
5493 5490 5487 5483 5480 5478 5473 5470 5467 5463 5458 5457 5456 5452 5449 5446 5445 5443 5442 5441 5441 5442 5442 5442 5442 5441 5440 5439 5439 5438 5437 5437 5436 5435 5435 5436 5438 5441
5478 5475 5473 5470 5466 5463 5460 5457 5453 5449 5446 5444 5443 5441 5439 5438 5435 5435 5435 5435 5434 5435 5436 5438 5438 5438 5437 5436 5435 5435 5433 5432 5431 5430 5430 5429 5430 5432
5466 5464 5462 5457 5451 5447 5445 5443 5440 5437 5436 5434 5434 5433 5433 5431 5429 5428 5427 5428 5429 5429 5431 5433 5434 5435 5435 5435 5434 5433 5431 5429 5427 5426 5425 5425 5425 5426
5455 5453 5451 5448 5444 5437 5433 5429 5427 5427 5429 5427 5426 5426 5427 5425 5423 5422 5421 5420 5423 5425 5424 5427 5429 5431 5432 5432 5432 5430 5428 5426 5424 5423 5422 5421 5421 5421
5443 5442 5441 5439 5433 5431 5427 5425 5425 5424 5421 5420 5421 5422 5421 5421 5419 5418 5416 5415 5416 5418 5418 5422 5425 5426 5427 5429 5428 5426 5424 5423 5421 5420 5419 5418 5417 5417
5432 5431 5429 5427 5424 5418 5418 5421 5423 5424 5422 5421 5421 5420 5419 5417 5414 5413 5411 5412 5413 5416 5415 5417 5421 5422 5424 5425 5424 5423 5421 5420 5419 5418 5417 5415 5414 5414
5423 5422 5420 5418 5414 5409 5412 5418 5422 5423 5424 5422 5420 5419 5417 5415 5411 5410 5410 5410 5411 5414 5413 5411 5413 5415 5419 5423 5421 5419 5418 5418 5418 5417 5415 5414 5413 5412
5415 5415 5414 5410 5407 5406 5410 5416 5419 5422 5423 5424 5423 5422 5420 5417 5413 5410 5408 5406 5406 5407 5407 5403 5405 5405 5411 5417 5419 5418 5418 5417 5416 5416 5414 5413 5412 5412
5407 5409 5410 5406 5406 5407 5408 5414 5416 5416 5421 5423 5424 5423 5421 5418 5415 5412 5408 5405 5403 5402 5401 5398 5400 5400 5401 5408 5414 5417 5417 5417 5417 5416 5414 5412 5411 5412
5400 5403 5406 5404 5406 5409 5412 5415 5416 5418 5423 5425 5424 5422 5419 5417 5415 5412 5410 5407 5403 5401 5400 5398 5398 5398 5400 5404 5409 5413 5414 5415 5416 5416 5415 5412 5411 5411
5397 5399 5402 5406 5409 5415 5417 5417 5419 5424 5425 5424 5423 5420 5418 5416 5414 5413 5411 5409 5406 5403 5400 5398 5398 5399 5401 5403 5406 5409 5412 5414 5415 5415 5414 5414 5414 5414
5397 5402 5405 5409 5413 5416 5419 5423 5424 5425 5424 5423 5422 5420 5418 5417 5414 5412 5411 5408 5406 5404 5402 5401 5401 5401 5402 5404 5406 5409 5411 5412 5413 5413 5414 5414 5414 5416
5392 5402 5408 5412 5415 5419 5422 5424 5425 5426 5425 5424 5423 5421 5420 5418 5415 5412 5410 5408 5405 5403 5403 5405 5406 5405 5404 5402 5406 5409 5411 5412 5412 5412 5413 5413 5413 5414
5394 5401 5406 5409 5413 5415 5419 5422 5425 5425 5425 5425 5424 5423 5420 5418 5416 5414 5412 5409 5407 5405 5404 5405 5407 5409 5408 5407 5402 5407 5410 5411 5411 5411 5411 5411 5411 5412
5397 5401 5404 5407 5411 5414 5418 5422 5425 5426 5427 5427 5426 5423 5421 5419 5417 5415 5412 5410 5408 5406 5405 5404 5405 5407 5407 5406 5404 5403 5408 5410 5410 5409 5408 5409 5408 5409
5398 5400 5404 5407 5411 5415 5419 5423 5426 5429 5430 5431 5429 5426 5424 5421 5419 5416 5413 5410 5408 5406 5405 5404 5404 5404 5404 5402 5401 5401 5403 5407 5408 5407 5406 5406 5406 5407
5398 5402 5405 5409 5413 5417 5422 5425 5428 5431 5433 5434 5432 5430 5427 5424 5421 5418 5415 5409 5409 5408 5406 5405 5404 5404 5405 5405 5403 5401 5400 5400 5403 5405 5407 5409 5410 5410
5399 5403 5408 5412 5417 5421 5425 5429 5432 5435 5437 5438 5437 5435 5432 5429 5426 5423 5419 5417 5414 5412 5409 5408 5408 5407 5407 5406 5403 5402 5401 5401 5401 5402 5404 5408 5411 5411
5400 5404 5410 5415 5420 5424 5427 5430 5433 5437 5439 5439 5440 5439 5438 5435 5432 5428 5426 5423 5420 5418 5416 5413 5412 5411 5409 5407 5405 5403 5402 5401 5401 5401 5400 5400 5404 5406